Regional Weather Roundup
Issued by NWS

Home | Current Version | Previous Version | Text Only | Print | Product List | Glossary On
Versions: 1 2 3 4 5 6 7 8 9 10 11 12 13 14 15 16 17 18 19 20 21 22 23 24 25 26 27 28 29 30 31 32 33 34 35 36 37 38 39 40 41 42 43 44 45 46 47 48 49 50
000
ASUS43 KLSX 051110
RWRMO

WEATHER SUMMARY FOR MISSOURI
NATIONAL WEATHER SERVICE SPRINGFIELD MO
600 AM CDT THU MAY 05 2016

NOTE: "FAIR" INDICATES FEW OR NO CLOUDS BELOW 12,000 FEET WITH NO
       SIGNIFICANT WEATHER AND/OR OBSTRUCTIONS TO VISIBILITY.
       CURRENT SKY AND/OR WEATHER CONDITIONS ARE NOT AVAILABLE FOR
       CHILLICOTHE AND FARMINGTON.

MOZ001>031-035>038-043-044-053-054-051200-
...NORTHERN AND WESTERN MISSOURI...

CITY           SKY/WX    TMP DP  RH WIND       PRES   REMARKS
KANSAS CTY INT PTCLDY    47  40  76 NW7       30.02R
KANSAS C DTWN  CLEAR     49  44  83 CALM      30.02R
LEE`S SUMMIT   CLEAR     48  40  73 NW5       30.02R
ST JOSEPH      CLEAR     41  40  96 CALM      30.03R
CHILLICOTHE      N/A     43  40  89 CALM      30.02R
KIRKSVILLE     CLEAR     42  34  73 N8        30.01R

$$
MOZ066>068-077>081-088>096-101>105-051200-
...SOUTHWEST MISSOURI...

CITY           SKY/WX    TMP DP  RH WIND       PRES   REMARKS
SPRINGFIELD    CLEAR     44  36  73 W3        29.99R
JOPLIN         CLEAR     42  40  92 CALM      30.03R

$$
MOZ032>034-039>042-045>050-055>058-069>072-051200-
...CENTRAL MISSOURI...

CITY           SKY/WX    TMP DP  RH WIND       PRES   REMARKS
COLUMBIA       CLEAR     43  38  82 N7        29.97R
JEFFERSON CITY CLEAR     44  41  89 NW5       29.97R
ROLLA          CLEAR     43  36  76 NW6       29.94R
SEDALIA        CLEAR     48  39  71 NW5       30.00R
WHITEMAN AFB   CLEAR     46  40  79 W1        29.99R
WARRENSBURG    CLEAR     45  39  81 NW3       30.00R
OSAGE BEACH    CLEAR     43  34  70 W3        29.98R

$$
MOZ051-052-059>065-051200-
...EAST CENTRAL MISSOURI...

CITY           SKY/WX    TMP DP  RH WIND       PRES   REMARKS
ST LOUIS INTL  CLEAR     49  37  63 N9        29.94R
SPIRIT OF STL  CLEAR     47  37  68 N3        29.94R
ST CHARLES     CLEAR     46  38  73 N8        29.95R

$$
MOZ072>076-082>087-097>100-106>115-051200-
...SOUTH CENTRAL AND SOUTHEAST MISSOURI...

CITY           SKY/WX    TMP DP  RH WIND       PRES   REMARKS
CAPE GIRARDEAU CLEAR     43  39  86 W7        29.88R
FARMINGTON     CLEAR     47  36  65 NW6       29.92R
POPLAR BLUFF   CLEAR     46  38  73 NW8       29.91R
WEST PLAINS    CLEAR     46  35  65 NW6       29.96R

$$



USA.gov is the U.S. government's official web portal to all federal, state and local government web resources and services.